This is the latest recevied weather packets stored in our database for station/object K5NAN. If no packets are shown the sender has not sent any weather packets the latest 1 day(s).
| Time | Temp. | Humidity | Pressure | Rain* | Wind** | Luminosity | Snow |
|---|---|---|---|---|---|---|---|
| 1778025498 | 27.22° C | 74% | 1003 hPa | 0 mm | 1.79 m/s, 180° | 19 W/m² | - |
| 1778025196 | 27.22° C | 73% | 1003.2 hPa | 0 mm | 2.68 m/s, 165° | 39 W/m² | - |
| 1778024892 | 27.22° C | 73% | 1003.3 hPa | 0 mm | 1.79 m/s, 197° | 62 W/m² | - |
| 1778024590 | 27.22° C | 72% | 1003.3 hPa | 0 mm | 1.79 m/s, 158° | 64 W/m² | - |
| 1778024287 | 27.78° C | 72% | 1003.2 hPa | 0 mm | 2.68 m/s, 188° | 62 W/m² | - |
| 1778023985 | 27.78° C | 71% | 1003 hPa | 0 mm | 2.68 m/s, 160° | 68 W/m² | - |
| 1778023682 | 27.78° C | 71% | 1003.3 hPa | 0 mm | 2.68 m/s, 160° | 88 W/m² | - |
| 1778023379 | 27.78° C | 71% | 1003 hPa | 0 mm | 2.68 m/s, 198° | 84 W/m² | - |
| 1778023075 | 27.78° C | 70% | 1002.9 hPa | 0 mm | 4.02 m/s, 101° | 104 W/m² | - |
| 1778022774 | 27.78° C | 70% | 1003 hPa | 0 mm | 4.47 m/s, 176° | 106 W/m² | - |
| 1778022472 | 28.33° C | 70% | 1002.9 hPa | 0 mm | 2.24 m/s, 165° | 130 W/m² | - |
| 1778022169 | 28.89° C | 68% | 1002.9 hPa | 0 mm | 4.92 m/s, 161° | 235 W/m² | - |
| 1778021865 | 28.33° C | 68% | 1002.9 hPa | 0 mm | 4.02 m/s, 165° | 372 W/m² | - |
| 1778021563 | 28.33° C | 69% | 1002.9 hPa | 0 mm | 3.13 m/s, 151° | 192 W/m² | - |
| 1778021257 | 28.33° C | 69% | 1002.9 hPa | 0 mm | 3.13 m/s, 228° | 169 W/m² | - |
| 1778020955 | 28.89° C | 68% | 1002.6 hPa | 0 mm | 4.02 m/s, 173° | 172 W/m² | - |
| 1778020653 | 29.44° C | 66% | 1002.5 hPa | 0 mm | 4.92 m/s, 186° | 131 W/m² | - |
| 1778020349 | 29.44° C | 66% | 1002.3 hPa | 0 mm | 4.02 m/s, 186° | 407 W/m² | - |
| 1778020045 | 28.89° C | 67% | 1002.5 hPa | 0 mm | 4.02 m/s, 153° | 451 W/m² | - |
| 1778019741 | 29.44° C | 67% | 1002.7 hPa | 0 mm | 3.13 m/s, 147° | 247 W/m² | - |
| 1778019439 | 29.44° C | 65% | 1002.5 hPa | 0 mm | 3.13 m/s, 174° | 446 W/m² | - |
| 1778019135 | 30° C | 65% | 1002.9 hPa | 0 mm | 4.47 m/s, 155° | 448 W/m² | - |
| 1778018832 | 30° C | 65% | 1002.7 hPa | 0 mm | 4.92 m/s, 179° | 411 W/m² | - |
| 1778018530 | 30° C | 66% | 1002.6 hPa | 0 mm | 2.68 m/s, 183° | 486 W/m² | - |
| 1778018228 | 30° C | 66% | 1002.9 hPa | 0 mm | 3.58 m/s, 147° | 533 W/m² | - |
* Rain latest hour (hover to see other rain measurements)
** Current wind speed in m/s (hover to see current wind gust speed)